This is the latest recevied weather packets stored in our database for station/object OE3APM-13. If no packets are shown the sender has not sent any weather packets the latest 10 day(s).
| Time | Temp. | Humidity | Pressure | Rain* | Wind** | Luminosity | Snow |
|---|---|---|---|---|---|---|---|
| 1777660177 | 13.89° C | 53% | 1026.1 hPa | 0 mm | - | 0 W/m² | - |
| 1777659873 | 14.44° C | 50% | 1026.1 hPa | 0 mm | - | 0 W/m² | - |
| 1777659573 | 15° C | 50% | 1026 hPa | 0 mm | - | 0 W/m² | - |
| 1777659275 | 15.56° C | 48% | 1025.9 hPa | 0 mm | - | 0 W/m² | - |
| 1777658974 | 15.56° C | 46% | 1026 hPa | 0 mm | - | 0 W/m² | - |
| 1777658674 | 16.11° C | 46% | 1025.9 hPa | 0 mm | - | 0 W/m² | - |
| 1777658371 | 16.11° C | 44% | 1025.8 hPa | 0 mm | - | 0 W/m² | - |
| 1777658070 | 16.67° C | 43% | 1025.8 hPa | 0 mm | - | 0 W/m² | - |
| 1777657772 | 16.67° C | 42% | 1025.8 hPa | 0 mm | - | 0 W/m² | - |
| 1777657468 | 16.67° C | 42% | 1025.7 hPa | 0 mm | - | 5 W/m² | - |
| 1777657159 | 17.22° C | 42% | 1025.7 hPa | 0 mm | - | 11 W/m² | - |
| 1777656858 | 17.22° C | 41% | 1025.7 hPa | 0 mm | - | 16 W/m² | - |
| 1777656553 | 17.22° C | 41% | 1025.5 hPa | 0 mm | - | 23 W/m² | - |
| 1777656254 | 17.22° C | 40% | 1025.5 hPa | 0 mm | - | 33 W/m² | - |
| 1777655951 | 17.78° C | 41% | 1025.5 hPa | 0 mm | - | 42 W/m² | - |
| 1777655652 | 17.78° C | 40% | 1025.5 hPa | 0 mm | - | 53 W/m² | - |
| 1777655350 | 17.78° C | 38% | 1025.5 hPa | 0 mm | - | 67 W/m² | - |
| 1777655049 | 17.78° C | 38% | 1025.5 hPa | 0 mm | - | 81 W/m² | - |
| 1777654753 | 17.78° C | 39% | 1025.7 hPa | 0 mm | - | 93 W/m² | - |
| 1777654451 | 17.78° C | 39% | 1025.5 hPa | 0 mm | - | 49 W/m² | - |
| 1777654150 | 18.33° C | 37% | 1025.7 hPa | 0 mm | - | 39 W/m² | - |
| 1777653849 | 18.33° C | 37% | 1025.7 hPa | 0 mm | - | 33 W/m² | - |
| 1777653551 | 18.33° C | 37% | 1025.5 hPa | 0 mm | - | 158 W/m² | - |
| 1777653246 | 18.33° C | 36% | 1025.7 hPa | 0 mm | - | 172 W/m² | - |
| 1777652945 | 18.89° C | 36% | 1025.7 hPa | 0 mm | - | 186 W/m² | - |
* Rain latest hour (hover to see other rain measurements)
** Current wind speed in m/s (hover to see current wind gust speed)